[[{"header":{"parameterUnit":"m.s-1","parameterCategory":1,"la1":30.2991,"la2":30.254,"lo1":-89.0895,"lo2":-89.0444,"dy":0.0017,"dx":0.0017,"nx":28,"ny":28,"refTime":"2025-05-23T09:00:00:Z","depth":0,"parameterNumber":2,"parameterNumberName":"U-component_of_WINDS"},"data":[0,0,0,0,0,0,0,0,0,0,0,0,0,0,0,0,0,0,0,0,0,0,0,0,0,0,0,0,0,0,0,0,0,0,0,0,0,0,0,0,0,0,0,0,0,0,0,0,0,0,0,0,0,0,0,0,0,0,-1.4308,-1.4307,0,-1.4218,-1.4217,-1.4216,-1.414,-1.4139,-1.4138,-1.4137,-1.4042,-1.404,-1.4039,0,0,0,0,0,0,0,0,0,0,0,0,0,-1.4412,-1.4411,-1.4308,-1.4307,-1.4306,-1.4218,-1.4217,-1.4216,-1.414,-1.4139,-1.4138,-1.4137,-1.4043,-1.4041,-1.4039,0,0,0,0,0,0,0,0,0,0,0,0,0,-1.4349,-1.441,-1.4308,-1.4258,-1.4252,-1.4218,-1.4217,-1.4215,-1.414,-1.4139,-1.4138,-1.4136,-1.4043,-1.4041,-1.4038,-1.4047,0,0,-1.403,-1.4029,0,0,0,0,0,0,0,0,-1.4353,-1.4345,-1.4266,-1.4261,-1.4255,-1.4189,-1.4219,-1.4159,-1.414,-1.4183,-1.4137,-1.4136,-1.4092,-1.4085,-1.4071,-1.4042,-1.4038,-1.403,-1.4028,-1.4027,-1.4026,0,0,0,0,0,0,0,-1.4357,-1.4349,-1.4272,-1.4265,-1.4258,-1.4238,-1.4228,-1.4207,-1.4145,-1.4179,-1.4173,-1.4164,-1.4088,-1.4074,-1.4068,-1.4037,-1.403,-1.4028,-1.4026,-1.4025,-1.401,-1.4011,0,0,0,0,0,0,-1.437,-1.4353,-1.4275,-1.427,-1.4302,-1.4238,-1.4226,-1.4211,-1.4145,-1.4134,-1.4165,-1.416,-1.4079,-1.4071,-1.4064,-1.4069,-1.4027,-1.4025,-1.4023,-1.4009,-1.401,-1.4011,0,0,0,0,0,0,-1.4372,-1.4364,-1.4279,-1.431,-1.4297,-1.4237,-1.4221,-1.421,-1.4195,-1.4135,-1.4123,-1.4161,-1.4077,-1.4068,-1.4052,-1.4065,-1.4023,-1.4021,-1.4007,-1.4009,-1.4011,-1.408,0,0,0,0,0,0,-1.4376,-1.4365,-1.4368,-1.431,-1.4296,-1.4269,-1.4222,-1.4209,-1.4191,-1.4185,-1.4128,-1.4117,-1.4076,-1.4056,-1.4049,-1.4061,-1.4019,-1.4006,-1.4008,-1.401,-1.4076,-1.4084,-1.409,0,0,0,0,0,-1.438,-1.4391,-1.4369,-1.436,-1.4299,-1.427,-1.4261,-1.4214,-1.4193,-1.4195,-1.4156,-1.4119,-1.4065,-1.4055,-1.4046,-1.4057,-1.4005,-1.4007,-1.401,-1.4073,-1.4082,-1.409,0,0,0,0,0,0,-1.445,-1.4382,-1.4357,-1.435,-1.4316,-1.4257,-1.4258,-1.4225,-1.4196,-1.4191,-1.4133,-1.4121,-1.4111,-1.4082,-1.4073,-1.4062,-1.403,-1.4031,-1.4081,-1.4089,-1.4096,-1.4103,-1.4017,0,0,0,0,0,-1.4465,-1.4448,-1.4389,-1.4388,-1.4373,-1.4319,-1.4304,-1.4271,-1.4233,-1.4218,-1.4178,-1.4142,-1.4117,-1.4101,-1.4075,-1.4072,-1.4058,-1.4075,-1.4082,-1.4089,-1.409,-1.4086,-1.4092,-1.402,-1.402,-1.402,0,0,-1.4496,-1.4456,-1.4449,-1.4402,-1.4372,-1.4354,-1.4307,-1.4291,-1.4277,-1.4215,-1.4198,-1.4167,-1.4123,-1.4114,-1.4107,-1.4089,-1.4107,-1.4092,-1.4097,-1.4095,-1.4089,-1.4096,-1.4102,-1.4022,-1.4021,-1.4021,0,0,-1.4542,-1.4511,-1.4507,-1.4478,-1.4434,-1.4398,-1.4397,-1.4342,-1.432,-1.4302,-1.4255,-1.4237,-1.4195,-1.4166,-1.4145,-1.4181,-1.4146,-1.4174,-1.4211,-1.4208,-1.4214,-1.4218,-1.4231,-1.4236,-1.4176,-1.4176,-1.4176,0,-1.4585,-1.4558,-1.4509,-1.4495,-1.4476,-1.442,-1.4415,-1.4389,-1.4338,-1.4326,-1.4307,-1.4253,-1.422,-1.4202,-1.4211,-1.4197,-1.4193,-1.418,-1.4217,-1.4221,-1.4225,-1.4236,-1.4241,-1.418,-1.4179,-1.4179,-1.4179,0,-1.4613,-1.4595,-1.4597,-1.455,-1.453,-1.4521,-1.447,-1.4456,-1.4425,-1.4391,-1.4372,-1.433,-1.4294,-1.4288,-1.4256,-1.4266,-1.4256,-1.4228,-1.4195,-1.4236,-1.4246,-1.425,-1.4185,-1.4184,-1.4183,-1.4182,0,0,-1.47,-1.4627,-1.4629,-1.4607,-1.4554,-1.4538,-1.4527,-1.4492,-1.4481,-1.4448,-1.4436,-1.4402,-1.4376,-1.4353,-1.4318,-1.4315,-1.4346,-1.4287,-1.4285,-1.4299,-1.4353,-1.4374,-1.438,-1.4323,-1.4323,-1.4324,-1.4356,0,-1.4738,-1.4714,-1.467,-1.466,-1.4643,-1.459,-1.458,-1.4546,-1.4514,-1.4493,-1.4457,-1.4434,-1.4402,-1.4387,-1.4382,-1.4343,-1.4356,-1.434,-1.431,-1.431,-1.4322,-1.4385,-1.4407,-1.4439,-1.436,-1.436,-1.4361,0,-1.4778,-1.4749,-1.4738,-1.4687,-1.4677,-1.4669,-1.4634,-1.4616,-1.4576,-1.4553,-1.4528,-1.4489,-1.4473,-1.4444,-1.442,-1.4411,-1.4396,-1.4375,-1.4375,-1.4369,-1.4337,-1.438,-1.4449,-1.4454,-1.4366,-1.4366,-1.4365,0,-1.4842,-1.4801,-1.4788,-1.4771,-1.4711,-1.4707,-1.4681,-1.464,-1.4623,-1.4592,-1.4579,-1.4547,-1.4529,-1.4504,-1.4458,-1.4441,-1.444,-1.4406,-1.4419,-1.442,-1.442,-1.4421,-1.4487,-1.4412,-1.4412,-1.4412,-1.4412,0,-1.4888,-1.4884,-1.4817,-1.4809,-1.4802,-1.4751,-1.4745,-1.4714,-1.4679,-1.4664,-1.4616,-1.4603,-1.4543,-1.4523,-1.4486,-1.4472,-1.4464,-1.4444,-1.4435,-1.4448,-1.4451,-1.4437,-1.4433,-1.4413,-1.4413,-1.4413,-1.4413,0,-1.4959,-1.4914,-1.4897,-1.4842,-1.4828,-1.4825,-1.4777,-1.4768,-1.4733,-1.4715,-1.4708,-1.4653,-1.4626,-1.4578,-1.4538,-1.4513,-1.4507,-1.449,-1.452,-1.4514,-1.453,-1.4529,-1.4588,-1.4593,-1.4517,-1.4518,-1.4518,0,-1.4991,-1.4986,-1.4931,-1.4918,-1.4894,-1.4874,-1.4856,-1.4805,-1.4788,-1.4743,-1.4739,-1.4709,-1.4682,-1.4642,-1.4598,-1.4567,-1.4549,-1.4572,-1.4544,-1.4558,-1.4549,-1.4549,-1.4548,-1.4578,-1.458,-1.458,-1.4581,0,-1.5052,-1.503,-1.5007,-1.4975,-1.4956,-1.4928,-1.4898,-1.489,-1.4832,-1.4816,-1.4789,-1.4768,-1.4727,-1.4698,-1.4661,-1.4633,-1.4597,-1.4591,-1.4592,-1.4605,-1.4623,-1.4613,-1.4537,-1.4589,-1.4588,-1.4588,-1.4587,-1.4587,-1.5103,-1.5097,-1.5057,-1.5032,-1.5005,-1.4978,-1.4966,-1.4931,-1.4908,-1.4871,-1.4842,-1.4818,-1.4778,-1.4724,-1.4699,-1.4678,-1.4661,-1.4663,-1.4663,-1.4664,-1.467,-1.4627,-1.4671,-1.4671,-1.467,-1.467,-1.467,0,-1.5162,-1.5134,-1.5112,-1.5072,-1.5052,-1.5022,-1.4987,-1.4972,-1.4952,-1.4918,-1.4893,-1.4862,-1.4833,-1.4788,-1.4755,-1.4747,-1.473,-1.474,-1.474,-1.4734,-1.4687,-1.4689,-1.4755,-1.4755,-1.4755,-1.4755,-1.4755,-1.4755,-1.519,-1.5177,-1.5151,-1.5123,-1.5095,-1.5071,-1.5054,-1.5029,-1.5001,-1.4969,-1.4946,-1.4916,-1.4878,-1.4842,-1.4814,-1.4801,-1.4791,-1.4807,-1.4789,-1.4745,-1.4737,-1.473,-1.4731,-1.4805,-1.4805,-1.4837,-1.4838,-1.4838]},{"header":{"parameterUnit":"m.s-1","parameterCategory":1,"la1":30.2991,"la2":30.254,"lo1":-89.0895,"lo2":-89.0444,"dy":0.0017,"dx":0.0017,"nx":28,"ny":28,"refTime":"2025-05-23T09:00:00:Z","depth":0,"parameterNumber":3,"parameterNumberName":"V-component_of_WINDS"},"data":[0,0,0,0,0,0,0,0,0,0,0,0,0,0,0,0,0,0,0,0,0,0,0,0,0,0,0,0,0,0,0,0,0,0,0,0,0,0,0,0,0,0,0,0,0,0,0,0,0,0,0,0,0,0,0,0,0,0,0.9029,0.9029,0,0.902,0.902,0.902,0.9015,0.9015,0.9015,0.9014,0.9004,0.9004,0.9004,0,0,0,0,0,0,0,0,0,0,0,0,0,0.9041,0.9041,0.9029,0.9029,0.9029,0.902,0.902,0.902,0.9015,0.9015,0.9015,0.9014,0.9004,0.9004,0.9004,0,0,0,0,0,0,0,0,0,0,0,0,0,0.9034,0.9041,0.9029,0.9025,0.9025,0.902,0.902,0.902,0.9015,0.9015,0.9015,0.9014,0.9004,0.9004,0.9004,0.9002,0,0,0.9002,0.9002,0,0,0,0,0,0,0,0,0.9035,0.9034,0.9026,0.9025,0.9025,0.9018,0.902,0.9014,0.9015,0.9018,0.9014,0.9014,0.9009,0.9008,0.9006,0.9001,0.9001,0.9002,0.9002,0.9002,0.9002,0,0,0,0,0,0,0,0.9035,0.9034,0.9025,0.9025,0.9025,0.9024,0.9023,0.9019,0.9014,0.9018,0.9018,0.9017,0.9009,0.9007,0.9006,0.9001,0.9002,0.9002,0.9002,0.9002,0.8996,0.8996,0,0,0,0,0,0,0.9036,0.9035,0.9025,0.9025,0.903,0.9024,0.9022,0.902,0.9014,0.9013,0.9017,0.9016,0.9008,0.9007,0.9006,0.9004,0.9002,0.9002,0.9001,0.8996,0.8996,0.8996,0,0,0,0,0,0,0.9037,0.9036,0.9026,0.903,0.9028,0.9023,0.9021,0.902,0.9018,0.9013,0.9012,0.9016,0.9007,0.9006,0.9003,0.9004,0.9002,0.9001,0.8995,0.8996,0.8996,0.9001,0,0,0,0,0,0,0.9037,0.9036,0.9035,0.903,0.9028,0.9023,0.9021,0.902,0.9018,0.9018,0.9012,0.9011,0.9007,0.9004,0.9003,0.9003,0.9001,0.8995,0.8996,0.8996,0.9,0.9001,0.9001,0,0,0,0,0,0.9038,0.9036,0.9035,0.9034,0.9027,0.9023,0.9023,0.9019,0.9018,0.9017,0.9014,0.9011,0.9004,0.9004,0.9003,0.9003,0.8995,0.8995,0.8996,0.9,0.9001,0.9001,0,0,0,0,0,0,0.904,0.9035,0.9034,0.903,0.9028,0.9023,0.9021,0.9019,0.9016,0.9016,0.9011,0.901,0.9008,0.9005,0.9005,0.9002,0.8999,0.8999,0.9003,0.9004,0.9004,0.9005,0.9001,0,0,0,0,0,0.904,0.9038,0.9034,0.9031,0.903,0.9026,0.9024,0.9022,0.9019,0.9017,0.9014,0.901,0.9007,0.9006,0.9002,0.9,0.9,0.9,0.9001,0.9001,0.9001,0.9001,0.9001,0.8996,0.8996,0.8996,0,0,0.9041,0.9038,0.9036,0.9032,0.9029,0.9027,0.9025,0.9022,0.9021,0.9017,0.9014,0.9011,0.9007,0.9005,0.9004,0.9003,0.9002,0.9001,0.9001,0.9001,0.9001,0.9002,0.9002,0.8996,0.8996,0.8996,0,0,0.904,0.9038,0.9036,0.9034,0.9031,0.9028,0.9028,0.9024,0.9022,0.902,0.9017,0.9015,0.901,0.9008,0.9006,0.9008,0.9005,0.9007,0.9009,0.9009,0.9009,0.901,0.9011,0.9012,0.9007,0.9007,0.9007,0,0.9041,0.9038,0.9035,0.9034,0.9032,0.9029,0.9028,0.9026,0.9022,0.9021,0.902,0.9015,0.9012,0.901,0.901,0.9009,0.9009,0.9007,0.901,0.901,0.901,0.9011,0.9012,0.9007,0.9007,0.9007,0.9007,0,0.904,0.9038,0.9037,0.9034,0.9032,0.9031,0.9028,0.9027,0.9025,0.9023,0.9022,0.9018,0.9015,0.9015,0.9012,0.9013,0.9012,0.9011,0.9008,0.9011,0.9012,0.9013,0.9007,0.9007,0.9007,0.9007,0,0,0.9039,0.9036,0.9036,0.9035,0.9033,0.9031,0.903,0.9028,0.9027,0.9025,0.9024,0.9021,0.902,0.9018,0.9016,0.9016,0.9019,0.9014,0.9014,0.9016,0.902,0.9022,0.9022,0.9017,0.9018,0.9018,0.9021,0,0.9039,0.9037,0.9035,0.9034,0.9033,0.9031,0.9031,0.9029,0.9028,0.9027,0.9025,0.9023,0.9021,0.902,0.902,0.9018,0.902,0.9018,0.9017,0.9017,0.9018,0.9023,0.9024,0.9027,0.9021,0.9021,0.9021,0,0.9037,0.9036,0.9035,0.9034,0.9034,0.9033,0.9032,0.9031,0.903,0.9029,0.9028,0.9026,0.9025,0.9024,0.9023,0.9023,0.9022,0.9021,0.9021,0.9021,0.9019,0.9023,0.9028,0.9028,0.9022,0.9022,0.9022,0,0.9038,0.9036,0.9036,0.9035,0.9034,0.9034,0.9033,0.9032,0.9031,0.9031,0.903,0.9029,0.9028,0.9028,0.9026,0.9025,0.9026,0.9024,0.9026,0.9026,0.9026,0.9026,0.9031,0.9025,0.9025,0.9025,0.9025,0,0.9038,0.9037,0.9037,0.9036,0.9036,0.9035,0.9035,0.9034,0.9034,0.9033,0.9032,0.9032,0.9029,0.9029,0.9028,0.9028,0.9028,0.9028,0.9027,0.9028,0.9028,0.9027,0.9027,0.9025,0.9025,0.9025,0.9025,0,0.9038,0.9037,0.9037,0.9037,0.9036,0.9037,0.9036,0.9036,0.9036,0.9036,0.9035,0.9034,0.9034,0.9033,0.9032,0.9031,0.9032,0.9031,0.9033,0.9033,0.9035,0.9035,0.904,0.9041,0.9034,0.9034,0.9034,0,0.9038,0.9038,0.9038,0.9038,0.9038,0.9038,0.9038,0.9037,0.9037,0.9037,0.9037,0.9037,0.9037,0.9038,0.9037,0.9036,0.9036,0.9038,0.9036,0.9037,0.9037,0.9037,0.9037,0.9038,0.9038,0.9038,0.9038,0,0.9037,0.9038,0.9038,0.9039,0.9039,0.9039,0.904,0.904,0.9039,0.904,0.904,0.904,0.9041,0.9041,0.9041,0.9041,0.904,0.9039,0.904,0.904,0.9041,0.9041,0.9035,0.9039,0.9039,0.9039,0.9039,0.9039,0.9038,0.9038,0.9039,0.904,0.904,0.9041,0.9042,0.9042,0.9042,0.9043,0.9043,0.9044,0.9044,0.9044,0.9044,0.9045,0.9044,0.9045,0.9045,0.9045,0.9046,0.9041,0.9045,0.9045,0.9045,0.9045,0.9045,0,0.9038,0.9039,0.904,0.9041,0.9042,0.9042,0.9043,0.9044,0.9045,0.9045,0.9046,0.9048,0.9049,0.9049,0.9049,0.905,0.905,0.9051,0.9051,0.9051,0.9046,0.9046,0.9051,0.9051,0.9051,0.9051,0.9051,0.9051,0.9038,0.904,0.9041,0.9043,0.9043,0.9045,0.9046,0.9047,0.9047,0.9049,0.9051,0.9051,0.9052,0.9053,0.9054,0.9054,0.9055,0.9056,0.9056,0.9051,0.9051,0.905,0.905,0.9056,0.9056,0.906,0.9061,0.9061]}]]